Flag for Germany Weather past 2 weeks in Stuttgart, Baden-Württemberg, Germany

Now
45 °F

Passing clouds.


Feels Like: 40 °F
Forecast: 38 / 46 °F
Wind: 8 mph from Southwest

Location: Stuttgart-Echterdingen

Current Time: Mar 26, 2015 at 8:28:45 PM

Latest Report: Mar 26, 2015 at 7:50 PM


Visibility: N/A

Pressure: 29.83 "Hg

Humidity: 71%

Dew point: 36 °F

Location of StuttgartLocation

Historic Weather in Stuttgart — Graph

°F

Stuttgart temperature yesterday

Maximum temperature yesterday: 61 °F (at 1:50 PM)
Minimum temperature yesterday: 36 °F (at 2:50 AM)
Average temperature yesterday: 48 °F

Past Weeks' High & Low Weather Summary

 TemperatureHumidityPressure
High66 °F (Mar 17, 2:50 PM)100% (Mar 15, 5:50 AM)30.42 "Hg (Mar 15, 5:50 AM)
Low25 °F (Mar 12, 6:50 AM)29% (Mar 16, 3:20 PM)29.56 "Hg (Mar 25, 1:50 PM)
Average44 °F70%30.07 "Hg
* Reported Mar 11 7:20 PM — Mar 26 7:20 PM, Stuttgart, Weather by CustomWeather, © 2015

Note: Actual official high and low records may vary slightly from our data, if they occured in-between our weather recording intervals... More about our weather records

Advertising

Stuttgart weather history for previous 24 hours

 ConditionsComfort  
Time TempWeatherWind HumidityBarometerVisibility
7:20 PM
Thu, Mar 26
45 °FPassing clouds.6 mph71%29.83 "HgN/A
6:50 PM45 °FPartly cloudy.7 mph71%29.83 "HgN/A
6:20 PM45 °FBroken clouds.6 mph71%29.80 "HgN/A
5:50 PM45 °FBroken clouds.7 mph71%29.80 "HgN/A
5:20 PM45 °FBroken clouds.7 mph76%29.80 "HgN/A
4:50 PM45 °FPartly sunny.7 mph76%29.80 "HgN/A
4:20 PM45 °FPartly sunny.7 mph76%29.80 "HgN/A
3:50 PM45 °FPartly sunny.7 mph71%29.80 "HgN/A
3:20 PM45 °FPartly sunny.7 mph76%29.80 "HgN/A
2:50 PM45 °FPartly sunny.6 mph76%29.80 "HgN/A
2:20 PM45 °FPartly sunny.5 mph76%29.80 "HgN/A
1:50 PM45 °FPartly sunny.7 mph76%29.80 "HgN/A
1:20 PM43 °FOvercast.6 mph81%29.80 "HgN/A
12:50 PM43 °FOvercast.5 mph81%29.83 "HgN/A
12:20 PM43 °FOvercast.5 mph81%29.83 "HgN/A
11:50 AM43 °FOvercast.8 mph81%29.83 "HgN/A
11:20 AM43 °FOvercast.8 mph81%29.83 "HgN/A
10:50 AM43 °FLight rain. Overcast.9 mph81%29.83 "HgN/A
10:20 AM43 °FOvercast.8 mph81%29.83 "HgN/A
9:50 AM43 °FOvercast.10 mph81%29.83 "HgN/A
9:20 AM43 °FOvercast.9 mph81%29.83 "Hg5 mi
8:50 AM41 °FLight rain. Overcast.12 mph87%29.80 "Hg5 mi
8:20 AM41 °FLight rain. Overcast.12 mph87%29.80 "Hg5 mi
7:50 AM41 °FOvercast.9 mph93%29.80 "Hg5 mi
7:20 AM41 °FOvercast.10 mph87%29.80 "Hg5 mi
6:50 AM43 °FOvercast.8 mph81%29.77 "Hg5 mi
6:20 AM43 °FOvercast.9 mph81%29.77 "HgN/A
5:50 AM43 °FOvercast.12 mph81%29.74 "HgN/A
5:20 AM43 °FPassing clouds.10 mph81%29.74 "HgN/A
4:50 AM43 °FOvercast.12 mph81%29.74 "HgN/A
4:20 AM43 °FOvercast.12 mph81%29.74 "HgN/A
3:50 AM43 °FOvercast.14 mph81%29.71 "HgN/A
3:20 AM43 °FOvercast.15 mph81%29.71 "HgN/A
2:50 AM43 °FOvercast.13 mph87%29.71 "HgN/A
2:20 AM43 °FOvercast.12 mph87%29.71 "HgN/A
1:50 AM43 °FOvercast.12 mph87%29.71 "HgN/A
1:20 AM45 °FOvercast.17 mph81%29.68 "HgN/A
12:50 AM45 °FOvercast.16 mph81%29.68 "HgN/A
12:20 AM45 °FOvercast.13 mph81%29.68 "HgN/A
11:50 PM
Wed, Mar 25
45 °FOvercast.14 mph81%29.68 "HgN/A
11:20 PM45 °FOvercast.13 mph81%29.68 "HgN/A
10:50 PM46 °FOvercast.13 mph82%29.68 "HgN/A
10:20 PM46 °FOvercast.13 mph82%29.65 "HgN/A
9:50 PM46 °FOvercast.9 mph82%29.65 "HgN/A
9:20 PM46 °FOvercast.10 mph82%29.65 "HgN/A
8:50 PM46 °FOvercast.13 mph82%29.65 "HgN/A
8:20 PM48 °FPassing clouds.12 mph76%29.65 "HgN/A
Weather by CustomWeather, © 2015

See weather overviewHow to use our weather pages